Weather History for PAGY - June, 2013

Change the Weather History Date:

Wednesday, June 19, 2013

  Actual Average Record
Temperature  
Mean Temperature 67 °F -  
Max Temperature 80 °F 62 °F 80 °F (1967)
Min Temperature 54 °F 47 °F 41 °F (1968)
Cooling Degree Days 2    
Growing Degree Days 17 (Base 50)    
Moisture  
Dew Point 49 °F    
Average Humidity 62    
Maximum Humidity 93    
Minimum Humidity 28    
Precipitation  
Precipitation 0.06 in - - ()
Sea Level Pressure  
Sea Level Pressure 29.97 in    
Wind  
Wind Speed 3 mph (SW)    
Max Wind Speed 12 mph    
Max Gust Speed 26 mph    
Visibility 10 miles    
Events Rain    
Averages and records for this station are not official NWS values.
T = Trace of Precipitation, MM = Missing Value Source: NWS Daily Summary

Daily Weather History Graph

Daily Weather History Graph

Search for Another Location

Airport or City:

Trip Planner

Search our weather history database for the weather conditions in past years. The results will help you decide how hot, cold, wet, or windy it might be!

Date:

Astronomy

Jun. 19, 2013 Rise Set
Actual Time 3:42 AM AKDT 10:22 PM AKDT
Civil Twilight 2:08 AM AKDT 11:56 PM AKDT
Nautical Twilight Sun does not set Sun does not set
Astronomical Twilight Sun does not set Sun does not set
Moon 5:37 PM AKDT (6/19) 1:31 AM AKDT (6/19)
Length of Visible Light 21h 47m
Length of Day
18h 39m
Waxing Gibbous, 82% of the Moon is Illuminated
Jun 19
Waxing Gibbous
Jun 23
Full
Jun 29
Last Quarter
Jul 7
New
Jul 15
First Quarter

Hourly Weather History & Observations

Time (AKDT) Temp. Dew Point Humidity Pressure Visibility Wind Dir Wind Speed Gust Speed Precip Events Conditions
12:53 AM 55.9 °F 46.9 °F 72% 30.00 in 10.0 mi Calm Calm - N/A   Overcast
1:53 AM 57.9 °F 48.9 °F 72% 30.00 in 10.0 mi Calm Calm - N/A   Overcast
2:53 AM 57.9 °F 48.9 °F 72% 30.01 in 10.0 mi Calm Calm - 0.00 in   Overcast
3:53 AM 55.9 °F 48.0 °F 75% 30.01 in 10.0 mi Calm Calm - N/A   Overcast
4:53 AM 54.0 °F 46.9 °F 77% 30.00 in 10.0 mi Calm Calm - N/A   Overcast
5:53 AM 55.0 °F 48.9 °F 80% 30.01 in 10.0 mi Calm Calm - N/A   Mostly Cloudy
6:53 AM 57.0 °F 48.9 °F 74% 30.00 in 10.0 mi Calm Calm - N/A   Overcast
7:53 AM 60.1 °F 51.1 °F 72% 30.00 in 10.0 mi Calm Calm - N/A   Clear
8:53 AM 57.9 °F 48.0 °F 70% 29.99 in 10.0 mi SW 3.5 mph - N/A   Clear
9:53 AM 73.0 °F 46.9 °F 39% 29.97 in 10.0 mi Calm Calm - N/A   Clear
10:53 AM 77.0 °F 44.1 °F 31% 29.96 in 10.0 mi NNE 9.2 mph - N/A   Clear
11:53 AM 80.1 °F 44.1 °F 28% 29.95 in 10.0 mi Variable 5.8 mph - N/A   Clear
12:53 PM 62.1 °F 46.9 °F 58% 29.95 in 10.0 mi SW 6.9 mph - N/A   Clear
1:53 PM 64.9 °F 48.0 °F 54% 29.94 in 10.0 mi SW 9.2 mph - N/A   Clear
2:53 PM 66.9 °F 48.0 °F 51% 29.94 in 10.0 mi SW 5.8 mph - N/A   Clear
3:53 PM 64.9 °F 50.0 °F 58% 29.92 in 10.0 mi SW 8.1 mph - N/A   Clear
4:53 PM 69.1 °F 48.9 °F 49% 29.91 in 10.0 mi SW 8.1 mph 18.4 mph N/A   Clear
5:53 PM 73.9 °F 48.9 °F 41% 29.89 in 10.0 mi SSW 10.4 mph - N/A   Clear
6:53 PM 68.0 °F 48.0 °F 49% 29.90 in 10.0 mi SW 5.8 mph - N/A   Scattered Clouds
7:53 PM 68.0 °F 48.0 °F 49% 29.91 in 10.0 mi SW 3.5 mph - N/A   Mostly Cloudy
8:53 PM 73.0 °F 46.9 °F 39% 29.94 in 10.0 mi NE 11.5 mph 26.5 mph N/A   Overcast
9:53 PM 63.0 °F 59.0 °F 87% 29.99 in 10.0 mi NE 6.9 mph - 0.06 in Rain Light Rain
10:53 PM 61.0 °F 59.0 °F 93% 30.01 in 10.0 mi Calm Calm - 0.00 in   Overcast
11:53 PM 61.0 °F 57.0 °F 87% 30.01 in 10.0 mi NNE 3.5 mph - N/A   Overcast